[[{"header":{"parameterUnit":"m.s-1","parameterCategory":1,"la1":30.2991,"la2":30.254,"lo1":-89.0895,"lo2":-89.0444,"dy":0.0017,"dx":0.0017,"nx":28,"ny":28,"refTime":"2023-10-24T03:00:00:Z","depth":0,"parameterNumber":2,"parameterNumberName":"U-component_of_WINDS"},"data":[0,0,0,0,0,0,0,0,0,0,0,0,0,0,0,0,0,0,0,0,0,0,0,0,0,0,0,0,0,0,0,0,0,0,0,0,0,0,0,0,0,0,0,0,0,0,0,0,0,0,0,0,0,0,0,0,0,0,-2.8983,-2.8984,0,-2.9024,-2.9024,-2.9025,-2.8982,-2.898,-2.8978,-2.8977,-2.9016,-2.9019,-2.9021,0,0,0,0,0,0,0,0,0,0,0,0,0,-2.8868,-2.887,-2.8983,-2.8984,-2.8984,-2.9024,-2.9024,-2.9025,-2.8982,-2.898,-2.8978,-2.8976,-2.9015,-2.9018,-2.9022,0,0,0,0,0,0,0,0,0,0,0,0,0,-2.8914,-2.8871,-2.8983,-2.8968,-2.8967,-2.9024,-2.9024,-2.9025,-2.8982,-2.898,-2.8977,-2.8975,-2.9014,-2.9018,-2.9022,-2.9096,0,0,-2.9034,-2.9036,0,0,0,0,0,0,0,0,-2.8912,-2.8918,-2.8969,-2.8969,-2.8968,-2.8995,-2.8998,-2.9049,-2.8983,-2.8976,-2.8977,-2.8974,-2.9011,-2.9015,-2.9028,-2.9098,-2.9099,-2.9034,-2.9037,-2.9038,-2.9039,0,0,0,0,0,0,0,-2.8908,-2.8916,-2.8999,-2.897,-2.8969,-2.8958,-2.8962,-2.9007,-2.9007,-2.8977,-2.8974,-2.8979,-2.901,-2.9024,-2.9029,-2.91,-2.9034,-2.9038,-2.904,-2.9042,-2.9233,-2.9236,0,0,0,0,0,0,-2.8907,-2.8914,-2.8998,-2.9,-2.8933,-2.8963,-2.8967,-2.8989,-2.9006,-2.9007,-2.8981,-2.8977,-2.9019,-2.9024,-2.903,-2.9118,-2.9038,-2.9042,-2.9044,-2.9231,-2.9234,-2.9237,0,0,0,0,0,0,-2.8905,-2.8915,-2.8996,-2.8957,-2.8966,-2.8967,-2.8992,-2.8991,-2.9005,-2.901,-2.9009,-2.8996,-2.9017,-2.9024,-2.908,-2.9119,-2.9044,-2.9047,-2.9227,-2.9232,-2.9236,-2.9294,0,0,0,0,0,0,-2.8902,-2.8914,-2.8942,-2.8957,-2.8968,-2.9046,-2.8995,-2.8993,-2.9012,-2.9007,-2.9024,-2.9024,-2.9016,-2.9075,-2.9084,-2.9123,-2.905,-2.9224,-2.9229,-2.9234,-2.9289,-2.93,-2.9309,0,0,0,0,0,-2.8898,-2.8957,-2.8944,-2.8954,-2.9003,-2.9048,-2.9054,-2.9044,-2.9015,-2.9044,-2.9047,-2.9023,-2.9113,-2.9081,-2.9091,-2.9131,-2.9221,-2.9228,-2.9234,-2.9284,-2.9298,-2.9309,0,0,0,0,0,0,-2.8944,-2.8958,-2.8944,-2.901,-2.9028,-2.9041,-2.9076,-2.9059,-2.9085,-2.9079,-2.9066,-2.907,-2.9129,-2.9136,-2.9099,-2.9205,-2.9163,-2.9171,-2.9198,-2.921,-2.922,-2.9217,-2.9053,0,0,0,0,0,-2.8963,-2.8999,-2.9008,-2.9065,-2.9075,-2.9074,-2.9093,-2.9085,-2.9103,-2.911,-2.9118,-2.9136,-2.9168,-2.919,-2.922,-2.929,-2.9294,-2.9324,-2.9334,-2.9342,-2.9349,-2.9388,-2.9402,-2.9257,-2.9257,-2.9257,0,0,-2.9,-2.9012,-2.9035,-2.9075,-2.9088,-2.9126,-2.9081,-2.9122,-2.9149,-2.9116,-2.9169,-2.9176,-2.9196,-2.9259,-2.9288,-2.9267,-2.939,-2.935,-2.9357,-2.9359,-2.9396,-2.941,-2.9422,-2.9262,-2.9261,-2.926,0,0,-2.9087,-2.91,-2.9149,-2.9164,-2.9185,-2.9185,-2.9197,-2.9213,-2.9216,-2.927,-2.9246,-2.9279,-2.9335,-2.935,-2.9365,-2.9461,-2.9441,-2.9472,-2.9525,-2.9563,-2.9574,-2.9584,-2.9618,-2.9631,-2.9479,-2.9479,-2.9479,0,-2.913,-2.9186,-2.9176,-2.922,-2.9238,-2.9212,-2.9261,-2.9276,-2.9306,-2.9319,-2.9296,-2.9367,-2.9379,-2.9446,-2.947,-2.9483,-2.9496,-2.9469,-2.9573,-2.9583,-2.9592,-2.9625,-2.9638,-2.9483,-2.9482,-2.9482,-2.9482,0,-2.9238,-2.9278,-2.9315,-2.9346,-2.9369,-2.9415,-2.9412,-2.9437,-2.9427,-2.9429,-2.9485,-2.9498,-2.9531,-2.9547,-2.9536,-2.9613,-2.96,-2.9575,-2.9533,-2.961,-2.964,-2.9653,-2.9488,-2.9487,-2.9485,-2.9485,0,0,-2.9353,-2.9381,-2.9394,-2.9409,-2.9432,-2.9461,-2.9508,-2.9541,-2.9562,-2.9585,-2.9623,-2.9672,-2.965,-2.9668,-2.966,-2.9693,-2.9769,-2.9665,-2.9665,-2.9684,-2.9856,-2.9873,-2.9888,-2.9757,-2.9759,-2.9761,-2.9854,0,-2.9441,-2.9521,-2.9515,-2.959,-2.9627,-2.9603,-2.9643,-2.9662,-2.9666,-2.9697,-2.9701,-2.9737,-2.9705,-2.9716,-2.9748,-2.9753,-2.9804,-2.9747,-2.9792,-2.9794,-2.9787,-2.9904,-2.9923,-3.0009,-2.9866,-2.9868,-2.9869,0,-2.9553,-2.9581,-2.966,-2.9679,-2.9694,-2.9731,-2.9762,-2.9792,-2.9813,-2.9814,-2.9835,-2.9822,-2.9869,-2.9827,-2.9891,-2.9853,-2.9871,-2.9877,-2.988,-2.9883,-2.9835,-2.991,-3.0037,-3.005,-2.9888,-2.9886,-2.9885,0,-2.9629,-2.9686,-2.9741,-2.9755,-2.9778,-2.9804,-2.9816,-2.9834,-2.9856,-2.9883,-2.9897,-2.9929,-2.9946,-2.9972,-2.9968,-2.9938,-3.0034,-2.9991,-3.0036,-3.0036,-3.0056,-3.0054,-3.0187,-3.0069,-3.0069,-3.0069,-3.0068,0,-2.9727,-2.9776,-2.9776,-2.981,-2.9865,-2.9858,-2.9913,-2.9921,-2.9939,-2.9974,-2.9956,-2.999,-2.9983,-3.0017,-3.0014,-3.0069,-3.0077,-3.0078,-3.0077,-3.008,-3.0079,-3.0091,-3.0084,-3.0072,-3.0071,-3.0071,-3.007,0,-2.982,-2.9822,-2.9881,-2.9899,-2.9905,-2.9945,-2.9961,-2.9994,-2.9997,-3.0042,-3.0052,-3.0058,-3.0097,-3.0096,-3.014,-3.0138,-3.0205,-3.0197,-3.0198,-3.0196,-3.0241,-3.0236,-3.0385,-3.0404,-3.0274,-3.0275,-3.0276,0,-2.9881,-2.9919,-2.9943,-2.9966,-2.9979,-3.0016,-3.0038,-3.0033,-3.0057,-3.0086,-3.0115,-3.0152,-3.0182,-3.0245,-3.0253,-3.0287,-3.0279,-3.0329,-3.0284,-3.0286,-3.028,-3.0278,-3.0282,-3.0337,-3.0339,-3.034,-3.0341,0,-2.9991,-2.9991,-3.0023,-3.0058,-3.0085,-3.0111,-3.0135,-3.0155,-3.0153,-3.0181,-3.0221,-3.0244,-3.0291,-3.0328,-3.0362,-3.0373,-3.0357,-3.0356,-3.0368,-3.037,-3.0369,-3.0371,-3.0221,-3.0352,-3.0351,-3.035,-3.0349,-3.0349,-3.007,-3.0103,-3.0126,-3.0163,-3.0181,-3.0205,-3.0237,-3.0245,-3.0279,-3.0317,-3.0312,-3.0357,-3.0379,-3.0423,-3.0437,-3.0473,-3.0455,-3.0473,-3.0477,-3.0481,-3.0486,-3.0365,-3.0479,-3.0479,-3.0478,-3.0478,-3.0478,0,-3.0179,-3.0192,-3.0227,-3.0263,-3.0293,-3.0277,-3.0303,-3.0329,-3.0369,-3.0392,-3.0422,-3.0469,-3.0507,-3.0518,-3.0555,-3.0581,-3.0575,-3.059,-3.0588,-3.0591,-3.05,-3.0486,-3.0595,-3.0595,-3.0595,-3.0595,-3.0595,-3.0595,-3.0238,-3.0294,-3.0297,-3.0362,-3.0375,-3.042,-3.0437,-3.0459,-3.0477,-3.053,-3.0562,-3.057,-3.0588,-3.0626,-3.066,-3.0662,-3.0676,-3.0695,-3.0695,-3.0609,-3.0597,-3.0586,-3.0573,-3.0699,-3.0699,-3.0783,-3.0784,-3.0785]},{"header":{"parameterUnit":"m.s-1","parameterCategory":1,"la1":30.2991,"la2":30.254,"lo1":-89.0895,"lo2":-89.0444,"dy":0.0017,"dx":0.0017,"nx":28,"ny":28,"refTime":"2023-10-24T03:00:00:Z","depth":0,"parameterNumber":3,"parameterNumberName":"V-component_of_WINDS"},"data":[0,0,0,0,0,0,0,0,0,0,0,0,0,0,0,0,0,0,0,0,0,0,0,0,0,0,0,0,0,0,0,0,0,0,0,0,0,0,0,0,0,0,0,0,0,0,0,0,0,0,0,0,0,0,0,0,0,0,0.5516,0.5516,0,0.5527,0.5527,0.5527,0.5523,0.5522,0.5522,0.5522,0.5531,0.5532,0.5532,0,0,0,0,0,0,0,0,0,0,0,0,0,0.549,0.5491,0.5516,0.5516,0.5516,0.5527,0.5527,0.5527,0.5523,0.5522,0.5522,0.5522,0.5531,0.5532,0.5532,0,0,0,0,0,0,0,0,0,0,0,0,0,0.5501,0.5491,0.5516,0.5515,0.5515,0.5527,0.5527,0.5527,0.5523,0.5522,0.5522,0.5522,0.5531,0.5532,0.5532,0.5545,0,0,0.5535,0.5535,0,0,0,0,0,0,0,0,0.5501,0.5502,0.5515,0.5515,0.5515,0.5523,0.5522,0.5533,0.5523,0.552,0.5522,0.5521,0.5529,0.553,0.5533,0.5545,0.5546,0.5535,0.5535,0.5535,0.5536,0,0,0,0,0,0,0,0.55,0.5502,0.552,0.5515,0.5515,0.5514,0.5516,0.5524,0.5526,0.552,0.552,0.5521,0.5529,0.5532,0.5533,0.5546,0.5535,0.5535,0.5536,0.5536,0.5572,0.5573,0,0,0,0,0,0,0.5499,0.5501,0.552,0.5521,0.5507,0.5515,0.5516,0.5521,0.5526,0.5527,0.5522,0.5521,0.5531,0.5532,0.5533,0.555,0.5535,0.5536,0.5537,0.5572,0.5573,0.5573,0,0,0,0,0,0,0.5499,0.5501,0.5519,0.5511,0.5513,0.5516,0.5521,0.5521,0.5525,0.5527,0.5528,0.5524,0.553,0.5532,0.5543,0.555,0.5536,0.5537,0.5571,0.5572,0.5573,0.5582,0,0,0,0,0,0,0.5498,0.5501,0.5505,0.5511,0.5514,0.5529,0.5522,0.5522,0.5526,0.5525,0.553,0.553,0.553,0.5542,0.5544,0.5551,0.5538,0.5571,0.5572,0.5573,0.5581,0.5583,0.5585,0,0,0,0,0,0.5497,0.5506,0.5506,0.5508,0.5519,0.5529,0.5531,0.5531,0.5527,0.5531,0.5534,0.553,0.5549,0.5543,0.5545,0.5552,0.557,0.5571,0.5573,0.558,0.5583,0.5585,0,0,0,0,0,0,0.5499,0.5507,0.5506,0.5517,0.5523,0.5528,0.5534,0.5533,0.5539,0.5538,0.5538,0.5539,0.555,0.5552,0.5545,0.5566,0.5559,0.5561,0.5564,0.5567,0.5568,0.5567,0.5538,0,0,0,0,0,0.5502,0.5509,0.5515,0.5525,0.5528,0.5531,0.5535,0.5535,0.554,0.5542,0.5545,0.555,0.5558,0.5562,0.5569,0.5582,0.5584,0.5588,0.559,0.5592,0.5593,0.5602,0.5605,0.5577,0.5577,0.5577,0,0,0.5505,0.551,0.5515,0.5525,0.553,0.5538,0.5532,0.5541,0.5547,0.5543,0.5554,0.5557,0.5563,0.5576,0.5581,0.5577,0.5601,0.5593,0.5594,0.5595,0.5604,0.5606,0.5609,0.5578,0.5578,0.5578,0,0,0.5516,0.5521,0.553,0.5536,0.5543,0.5546,0.5548,0.5555,0.5557,0.5568,0.5566,0.5574,0.5586,0.5591,0.5595,0.5613,0.561,0.5615,0.5624,0.5633,0.5635,0.5637,0.5645,0.5647,0.5616,0.5616,0.5616,0,0.552,0.5532,0.5535,0.5544,0.555,0.5549,0.5559,0.5564,0.5573,0.5577,0.5573,0.5591,0.5594,0.5609,0.5614,0.5617,0.562,0.5614,0.5635,0.5637,0.5639,0.5646,0.5649,0.5617,0.5617,0.5617,0.5617,0,0.5537,0.5546,0.5553,0.5564,0.557,0.558,0.5584,0.559,0.5591,0.5594,0.5607,0.5612,0.5621,0.5625,0.5624,0.5641,0.5639,0.5635,0.5628,0.5642,0.5649,0.5651,0.5618,0.5618,0.5617,0.5617,0,0,0.5547,0.5562,0.5564,0.557,0.558,0.5588,0.5598,0.5609,0.5615,0.5622,0.5631,0.5643,0.5641,0.5646,0.5647,0.5655,0.5671,0.5651,0.5651,0.5655,0.5691,0.5693,0.5696,0.567,0.567,0.5671,0.5691,0,0.556,0.5579,0.5583,0.56,0.561,0.5611,0.5621,0.5628,0.5633,0.5641,0.5646,0.5655,0.5651,0.5654,0.5663,0.5667,0.5678,0.5666,0.5679,0.5679,0.5677,0.57,0.5702,0.572,0.5693,0.5694,0.5694,0,0.5576,0.5586,0.5604,0.5616,0.562,0.5629,0.564,0.5649,0.5658,0.5661,0.5668,0.5669,0.5681,0.5675,0.5692,0.5684,0.569,0.5694,0.5694,0.5695,0.5687,0.5701,0.5726,0.5729,0.5698,0.5697,0.5697,0,0.5583,0.5601,0.5615,0.562,0.5633,0.564,0.5646,0.5655,0.5662,0.5672,0.5677,0.5688,0.5694,0.5702,0.5707,0.5701,0.5725,0.5718,0.5728,0.5728,0.5732,0.5731,0.5757,0.5736,0.5736,0.5736,0.5736,0,0.5596,0.5607,0.5618,0.5627,0.564,0.5646,0.5659,0.5665,0.5674,0.5684,0.5686,0.5695,0.5701,0.5711,0.5715,0.573,0.5732,0.5735,0.5736,0.5735,0.5735,0.5739,0.5737,0.5736,0.5736,0.5736,0.5736,0,0.5605,0.5613,0.5628,0.5641,0.5645,0.5655,0.5666,0.5675,0.5681,0.5694,0.5697,0.5706,0.5719,0.5725,0.574,0.5743,0.576,0.576,0.5757,0.5757,0.5767,0.5767,0.5797,0.5801,0.5776,0.5777,0.5777,0,0.5613,0.5622,0.5637,0.5645,0.5652,0.5664,0.5672,0.5678,0.5687,0.5701,0.5708,0.5722,0.5733,0.5754,0.5761,0.5774,0.5774,0.5784,0.5776,0.5776,0.5775,0.5775,0.5776,0.5785,0.5785,0.5786,0.5786,0,0.5626,0.5631,0.5642,0.5657,0.5667,0.5678,0.5688,0.5695,0.5703,0.5713,0.5727,0.5736,0.5754,0.5768,0.5782,0.5788,0.5789,0.5789,0.5792,0.5791,0.5789,0.5791,0.5761,0.5788,0.5787,0.5787,0.5787,0.5787,0.5635,0.5645,0.5658,0.5672,0.5681,0.5692,0.5702,0.5711,0.5723,0.5738,0.5742,0.5758,0.577,0.5789,0.5796,0.5809,0.5806,0.581,0.5812,0.5813,0.5814,0.5788,0.5811,0.5811,0.5811,0.5811,0.5811,0,0.5649,0.5659,0.5672,0.5688,0.57,0.5702,0.5715,0.5724,0.5738,0.575,0.5762,0.578,0.5795,0.5805,0.582,0.5828,0.5829,0.5832,0.5831,0.5833,0.5814,0.5811,0.5831,0.5831,0.5831,0.5831,0.5831,0.5831,0.5658,0.5675,0.5681,0.5704,0.5713,0.5729,0.5737,0.5748,0.5757,0.5778,0.579,0.5798,0.5809,0.5826,0.584,0.5842,0.5848,0.5851,0.5854,0.5836,0.5834,0.5832,0.5828,0.5852,0.5852,0.5871,0.5871,0.5872]}]]